Theta_e
300 301 301 302 302 302 303 303 303 304 304 304 304 305 306 307 308 305 301 307 299 293 294 297 298 294 294 294 290 294 294 295 295 289 288 290 291 292 291 292 290 288 288 288 289 285 284 304 301 293 296 298 298 296
300 300 301 301 302 302 303 304 303 304 304 304 304 305 306 307 307 307 300 307 305 297 296 302 301 303 302 302 298 298 295 296 297 292 293 294 290 293 292 286 299 291 295 291 292 292 298 300 298 300 298 294 295 294
300 301 301 301 302 302 303 303 303 303 303 304 304 305 305 306 306 306 302 303 303 297 296 296 298 303 308 308 308 296 299 301 300 302 297 296 290 295 289 292 294 299 301 295 294 296 296 296 298 298 296 295 295 295
300 300 300 301 301 302 303 303 304 303 304 304 305 305 305 306 305 306 303 306 303 298 290 292 304 301 309 308 307 306 304 305 303 302 297 296 292 298 294 295 295 298 298 295 293 295 295 296 296 295 295 296 295 294
300 300 300 300 301 302 303 303 304 304 304 305 305 306 306 306 307 306 306 308 308 299 290 292 298 304 307 307 305 305 303 301 298 295 294 293 298 297 298 297 295 298 295 291 290 295 294 294 296 296 295 294 294 292
299 299 300 300 301 302 303 303 303 304 305 305 306 306 306 306 307 306 300 306 306 304 293 288 299 302 304 306 303 302 301 300 298 295 294 296 299 296 293 292 300 302 303 300 295 299 296 296 296 296 294 294 294 293
299 299 300 300 301 303 303 303 304 305 305 306 306 306 306 306 305 301 297 302 305 306 296 291 292 301 303 304 303 299 301 298 297 295 293 294 294 299 295 291 299 301 301 300 300 297 294 294 292 296 295 295 296 294
299 298 299 300 302 302 303 304 305 305 305 306 306 306 306 306 305 301 306 306 306 302 300 291 291 295 302 297 295 299 296 296 295 294 295 292 296 296 292 298 300 300 300 300 299 297 294 294 295 295 295 295 293 291
299 299 300 300 302 302 302 304 305 305 305 306 306 307 307 304 303 303 308 308 306 302 294 294 290 288 301 297 297 296 298 290 295 291 291 294 292 290 296 298 298 300 298 296 296 295 295 294 294 295 294 293 291 290
299 299 300 300 301 301 302 304 305 305 305 306 307 302 297 303 308 309 304 300 300 300 300 294 298 292 298 296 293 294 295 292 287 289 295 291 290 298 300 300 301 302 300 299 295 293 293 293 294 294 293 293 291 290
299 299 300 300 300 301 302 304 304 305 306 302 298 296 302 309 304 302 296 295 296 294 296 296 297 293 300 291 290 294 290 292 286 289 291 288 289 295 300 300 301 301 301 300 299 297 295 295 294 293 293 292 291 289
299 299 300 300 300 301 303 304 304 302 300 299 299 301 303 301 298 294 293 294 293 290 295 292 294 296 298 298 293 293 290 292 286 294 291 286 291 298 299 300 301 302 301 300 298 296 296 296 296 294 292 290 289 289
299 300 300 301 301 301 303 304 304 304 304 306 299 297 297 295 287 288 285 288 290 294 296 296 293 295 297 297 293 290 288 287 296 289 286 289 295 298 299 299 299 302 301 300 297 297 297 297 296 293 291 289 288 287
299 300 300 301 301 303 304 304 304 304 302 297 293 286 290 289 290 290 290 291 294 295 296 297 295 293 294 291 291 288 292 292 286 284 285 292 295 296 297 298 298 297 297 297 297 297 296 296 295 295 293 292 289 286
300 300 300 301 304 304 304 304 304 304 301 294 293 286 290 295 297 297 297 297 298 299 296 296 295 293 290 291 290 290 288 285 286 284 289 294 297 297 298 297 296 296 295 296 296 295 295 295 294 293 293 291 290 288
300 300 301 303 303 302 302 304 306 306 301 296 294 291 295 294 294 296 296 295 299 298 298 297 292 290 289 290 288 287 287 282 284 289 293 296 297 298 298 297 298 297 297 296 296 295 295 294 293 291 291 290 289 289
299 296 303 302 301 301 304 303 304 299 295 293 293 296 295 293 293 296 297 297 301 296 292 293 289 287 293 288 287 287 285 288 291 293 296 297 296 295 297 299 300 298 297 296 295 295 294 295 294 292 289 289 289 289
295 299 302 300 300 302 305 304 298 295 292 296 292 295 295 295 296 297 298 298 298 295 295 292 295 288 287 285 285 289 291 294 296 295 295 296 297 298 297 296 297 296 296 295 295 295 295 294 293 292 291 291 290 290
297 298 299 300 300 298 297 298 299 291 295 299 299 301 301 300 301 301 300 300 301 300 298 295 290 288 288 291 290 293 295 296 295 296 298 299 299 297 297 296 296 295 295 296 295 294 295 295 293 292 292 292 289 289
299 300 300 302 301 298 295 296 302 294 292 297 299 299 299 299 302 301 301 299 299 297 293 291 292 294 293 295 298 298 297 298 297 295 294 295 296 296 295 296 296 296 295 295 294 293 293 289 289 289 289 289 287 288
300 304 303 303 303 299 298 295 294 295 296 295 298 299 298 301 300 299 299 302 296 294 291 297 298 298 302 301 301 300 299 299 297 294 293 292 294 295 295 296 296 294 293 292 292 291 291 288 288 289 289 287 287 288
301 302 301 304 298 299 296 298 295 296 295 296 297 298 297 296 296 297 301 297 295 296 298 300 300 300 300 300 300 301 301 299 296 294 294 294 293 294 294 294 294 293 294 293 292 290 290 290 290 288 287 287 288 287
299 301 299 299 293 290 289 298 293 294 291 295 297 295 296 296 298 301 295 299 299 302 303 302 301 302 300 302 302 301 297 296 294 294 294 295 295 296 295 295 295 294 292 292 292 290 288 289 288 289 288 288 287 286
300 296 294 293 292 287 294 292 295 294 295 293 293 292 295 297 300 294 292 296 299 302 302 301 299 297 298 299 297 296 297 297 295 295 297 295 294 295 296 295 295 295 293 292 290 289 288 289 288 288 289 289 288 287
290 289 290 284 293 290 287 288 289 291 290 292 291 292 295 298 293 291 291 296 300 300 300 301 299 296 294 294 295 296 299 297 295 295 297 298 296 296 294 294 293 293 294 292 291 290 288 289 289 288 289 288 287 287
285 289 287 290 290 289 289 287 288 290 292 291 293 297 298 294 290 290 295 299 300 301 302 300 299 297 295 295 295 296 297 300 299 296 297 298 297 295 293 291 290 290 294 293 292 290 290 290 288 287 286 286 285 288
284 287 292 297 294 294 292 293 295 293 291 290 293 293 293 288 289 294 299 303 302 305 306 305 303 301 297 296 298 299 300 300 299 298 299 299 299 298 297 293 291 291 294 294 293 292 290 289 288 288 286 287 287 287
289 292 289 292 292 294 291 292 292 290 293 295 294 290 288 290 292 299 300 304 305 306 305 305 306 304 300 299 299 299 299 300 301 299 298 298 297 295 293 292 290 287 288 288 292 292 291 290 289 289 288 286 286 287
289 293 294 290 292 293 293 292 293 296 299 296 293 292 293 298 303 302 303 303 304 304 303 303 303 305 300 300 300 300 299 298 296 294 293 291 291 291 292 292 292 291 289 286 283 286 289 288 289 288 289 287 286 286
290 295 292 292 291 290 296 299 297 300 300 299 298 297 297 299 302 306 304 302 301 301 303 304 304 303 298 297 297 298 300 300 299 297 294 293 293 293 293 293 292 291 291 289 286 285 283 286 286 287 287 286 285 284
296 296 293 293 292 296 299 302 301 300 299 297 299 296 294 299 301 304 304 304 302 302 302 302 303 303 301 298 298 296 296 299 300 300 301 297 295 295 295 294 293 291 291 289 287 285 285 285 285 285 286 285 284 284
295 293 293 290 293 299 299 297 296 296 295 295 295 297 297 296 294 300 303 303 302 301 298 301 304 302 304 302 301 301 293 300 301 300 299 297 297 297 296 295 293 293 291 289 288 287 286 287 285 285 284 284 283 283
294 294 294 294 293 294 296 295 293 293 293 294 294 295 296 295 291 300 306 305 304 303 303 304 305 305 305 305 304 301 296 301 296 289 289 290 291 293 295 294 294 293 291 290 289 288 286 284 282 281 279 278 278 277
Wind_Speed
14 15 16 18 18 19 20 21 21 21 21 22 22 22 22 21 21 9 8 2 1 3 7 6 11 11 10 5 5 11 8 4 4 6 3 3 3 5 3 9 7 4 4 2 0 6 1 7 10 9 8 16 17 17
14 15 16 18 19 19 19 20 21 21 21 22 22 22 22 21 19 15 4 3 3 3 8 13 12 13 11 14 4 4 4 7 3 4 4 4 5 6 5 4 4 3 4 3 6 8 13 21 18 17 19 19 17 18
15 16 17 17 18 19 19 20 21 22 22 22 22 22 22 22 19 13 6 4 3 3 6 4 5 13 12 5 7 2 4 5 6 2 3 3 5 4 4 10 8 8 9 9 9 14 18 20 20 20 19 18 17 16
16 16 17 18 19 20 20 21 22 23 23 22 21 22 22 21 20 16 4 4 3 3 3 7 7 10 14 9 13 4 7 8 5 2 2 4 4 5 5 6 8 3 5 14 20 18 19 17 17 18 18 17 18 17
16 17 17 18 20 20 21 22 22 22 23 24 23 22 21 20 19 10 5 3 1 2 3 6 14 5 10 6 12 11 7 6 4 5 4 4 3 4 3 5 7 5 10 9 8 7 16 14 12 14 16 16 17 17
16 16 17 19 20 21 22 22 22 22 24 24 24 23 21 18 15 4 1 1 3 2 1 4 5 6 9 10 9 9 6 4 3 3 3 3 2 3 4 4 5 2 8 17 14 14 18 17 16 17 17 16 16 16
16 17 17 19 21 22 22 22 23 23 23 23 23 21 18 14 5 2 2 2 1 2 2 3 5 3 6 6 5 4 5 3 4 3 4 4 5 5 4 5 12 16 19 17 18 20 17 15 14 16 16 17 19 16
16 17 18 20 21 22 22 23 24 25 25 25 23 20 16 13 9 4 4 8 3 3 2 2 4 5 3 4 4 3 3 4 5 2 4 4 5 5 5 9 13 15 16 15 15 17 16 14 12 11 12 13 14 13
16 17 18 20 21 22 22 24 25 25 26 27 23 19 3 3 2 0 8 7 3 2 3 2 3 3 4 3 3 3 2 3 2 4 3 4 4 5 6 10 8 7 11 19 18 17 14 12 11 12 14 14 13 11
16 17 19 19 20 21 22 23 23 26 28 25 5 3 2 1 3 8 2 3 3 3 3 2 3 3 3 3 3 3 3 2 3 1 3 4 4 8 11 9 8 4 13 16 16 13 10 10 14 16 16 14 13 11
16 17 19 20 22 22 22 21 20 24 12 5 4 3 6 10 2 3 3 3 2 2 1 0 1 3 3 4 3 3 2 1 3 3 3 4 3 5 8 8 6 10 8 10 9 7 12 15 14 15 15 14 12 11
18 17 18 19 21 22 21 18 18 9 4 7 7 7 4 3 3 3 2 3 3 2 3 4 3 2 2 2 2 4 3 2 2 1 4 3 2 2 8 11 10 7 7 9 9 16 15 15 16 16 15 14 12 10
19 17 17 18 20 21 18 18 18 17 14 3 3 4 2 3 4 1 4 2 3 4 3 4 4 2 4 4 1 1 2 0 2 4 3 3 1 5 6 8 11 11 7 7 14 16 17 18 18 17 15 13 12 10
19 19 19 18 19 12 16 17 17 10 4 3 3 5 1 2 4 4 4 3 3 4 5 4 2 3 3 3 3 3 2 2 2 3 2 3 2 6 6 5 8 7 11 15 16 16 14 14 15 14 13 13 12 10
19 19 21 13 10 14 18 19 17 3 3 3 3 3 2 3 1 2 2 3 3 5 3 4 1 2 1 2 1 3 3 3 4 2 1 2 4 4 3 6 7 8 9 10 12 11 13 14 14 13 11 11 12 11
18 20 1 8 14 19 22 15 4 3 3 2 3 4 5 4 3 3 2 2 4 5 3 2 2 2 1 2 2 3 3 2 1 1 1 4 1 3 6 6 5 5 7 11 9 11 13 12 13 13 11 9 8 8
15 5 9 14 19 22 15 3 3 3 2 2 2 2 3 4 5 3 3 4 4 4 2 2 3 0 3 2 3 3 2 2 2 2 5 2 2 6 5 5 6 10 9 13 13 12 11 11 11 10 9 8 7 7
6 11 13 18 16 10 2 2 3 3 4 4 2 2 2 4 4 1 2 2 2 2 3 1 2 2 1 1 2 1 3 3 4 6 4 3 4 2 5 9 12 13 12 10 9 8 10 8 6 5 9 9 7 6
11 11 16 19 8 4 3 2 2 3 4 2 5 4 3 1 1 2 3 2 1 0 2 2 1 2 2 1 5 5 4 5 5 3 3 4 4 7 11 10 10 8 7 7 8 5 5 6 3 1 5 7 6 5
19 14 15 12 4 3 3 3 2 3 4 2 5 3 3 2 4 3 2 1 2 2 1 1 2 1 5 6 5 5 5 6 5 5 6 7 7 7 6 6 5 7 7 8 7 7 5 5 5 5 6 5 5 6
10 3 6 5 4 5 4 2 3 3 4 4 6 3 2 4 2 4 3 3 2 3 2 2 1 5 5 5 6 6 5 4 3 6 7 6 5 5 6 4 5 4 4 4 4 5 7 5 4 3 5 5 5 4
3 7 3 4 3 3 3 3 3 4 4 4 6 5 2 2 2 2 3 2 3 1 2 2 5 6 5 4 4 4 6 6 9 8 9 9 5 5 4 4 4 4 4 4 4 6 5 4 6 6 5 5 5 3
8 3 4 3 2 1 6 3 4 3 4 3 2 3 3 2 3 2 1 2 3 4 5 4 4 6 8 6 5 6 11 9 6 6 5 5 5 5 4 4 4 5 5 5 6 6 5 6 7 6 6 5 4 4
2 3 4 3 5 3 3 3 3 4 3 4 3 2 2 2 2 0 0 2 3 6 2 4 5 4 4 2 5 6 5 5 5 4 4 5 4 3 5 6 6 5 5 7 6 5 4 2 5 4 7 8 7 5
3 4 3 4 4 4 4 4 5 5 5 6 5 2 2 3 1 2 2 3 4 3 5 4 5 7 4 3 3 3 6 6 5 4 4 5 5 5 6 5 5 4 5 5 4 5 5 4 2 5 6 5 6 7
4 5 5 5 3 4 4 3 4 6 7 3 2 2 2 1 1 1 2 1 2 3 2 3 3 4 7 6 4 4 3 4 5 4 4 5 5 7 6 5 4 1 3 5 5 6 5 6 7 8 6 5 5 5
4 5 6 5 3 2 4 5 6 3 3 1 0 0 1 3 1 2 1 2 1 1 2 4 3 2 6 6 5 4 5 5 6 5 4 5 5 4 4 7 7 5 4 6 5 6 7 7 6 7 6 4 3 4
5 6 5 7 7 6 7 7 0 4 1 2 2 1 1 1 2 2 1 1 1 2 3 4 4 3 6 7 5 7 5 7 8 8 8 8 8 7 7 7 7 14 7 6 4 6 6 6 6 6 7 7 5 5
6 6 6 9 8 4 3 4 0 2 1 2 0 2 3 0 3 3 3 2 2 4 3 4 4 2 6 6 5 7 8 7 9 11 9 5 5 4 4 4 5 7 6 8 10 10 10 7 6 6 7 6 5 5
8 7 7 7 6 4 1 3 2 3 3 2 1 2 2 2 2 3 4 3 3 3 3 1 4 1 6 7 7 7 4 5 6 6 6 7 6 7 6 4 6 6 5 7 6 5 7 6 6 5 5 5 5 4
5 3 8 8 2 1 3 3 1 2 2 1 1 2 3 1 1 3 3 3 3 4 1 2 4 4 3 7 8 8 5 4 7 9 6 9 9 7 5 6 6 5 5 7 6 5 5 4 5 5 6 8 5 6
5 6 2 3 2 2 1 2 1 2 2 2 2 1 1 1 2 2 3 4 4 5 5 2 2 4 1 3 6 7 10 6 6 9 14 9 8 7 7 6 7 6 7 6 6 6 5 4 6 7 6 9 8 10
6 4 3 2 2 3 3 4 2 1 3 3 2 2 2 2 3 2 1 3 3 1 1 4 3 5 4 7 4 6 7 6 10 10 12 11 10 8 6 6 6 5 7 5 6 11 10 11 9 9 9 8 8 8
Wind_Direction
328 329 329 332 334 336 333 333 332 332 333 335 335 333 334 333 337 342 289 204 237 255 277 267 324 304 308 297 322 316 318 334 317 359 322 1 22 43 49 72 82 94 76 77 199 91 71 329 30 88 125 81 81 76
328 327 331 331 332 333 331 331 332 332 330 330 331 330 330 329 335 340 285 298 185 226 269 294 287 269 264 278 295 306 278 298 324 325 343 356 12 17 11 83 73 81 123 150 79 88 81 73 93 89 88 84 78 84
326 327 329 330 328 327 329 326 327 328 326 325 326 326 326 326 328 331 288 304 291 283 294 321 326 314 300 301 189 275 292 307 310 285 291 346 48 326 45 75 100 57 52 96 85 78 83 84 84 85 86 88 87 86
325 327 329 332 326 322 323 323 323 324 322 322 320 321 321 321 322 320 286 287 275 269 307 292 304 316 308 323 330 226 267 310 268 216 135 5 31 351 29 74 69 53 95 102 98 98 88 87 93 97 95 92 88 85
323 325 329 332 323 322 321 320 319 318 318 320 321 320 320 319 314 302 252 242 215 324 302 297 299 277 315 324 336 325 328 330 323 356 25 57 56 330 4 39 27 72 116 118 124 108 112 109 103 100 99 101 97 92
323 325 332 328 323 321 320 320 319 318 316 320 321 317 318 318 318 290 265 99 17 94 291 313 322 296 341 336 336 324 341 328 3 7 339 31 132 158 52 46 27 71 83 106 113 109 99 99 94 91 90 88 90 95
325 328 330 325 322 323 322 322 320 318 315 316 312 308 308 309 303 298 328 337 9 165 254 285 304 329 342 333 317 342 338 10 7 14 352 346 4 47 38 51 74 89 101 107 111 109 99 92 99 97 100 96 92 87
325 329 325 323 324 324 324 323 322 319 317 314 309 303 300 295 274 274 214 211 256 248 246 310 295 305 42 308 344 323 344 19 348 343 349 355 11 60 62 91 98 101 101 105 97 93 101 110 113 114 108 103 96 96
324 325 323 323 324 324 325 323 323 320 318 312 309 300 273 201 241 44 169 180 219 274 306 200 306 322 333 316 283 336 353 54 289 34 351 40 29 49 115 85 59 104 116 112 110 113 117 123 127 120 108 99 95 89
327 324 322 323 323 324 327 323 323 323 319 311 299 276 245 61 279 308 145 191 186 210 224 256 255 315 333 300 326 10 347 19 47 350 17 57 54 75 84 106 103 98 112 119 125 130 136 123 98 89 86 85 84 85
325 324 320 322 323 325 326 321 325 325 302 330 340 323 331 315 297 226 259 210 169 257 91 268 49 339 323 2 320 350 295 316 75 284 91 45 56 64 71 84 95 91 82 109 118 112 100 103 105 102 94 88 82 77
320 318 314 318 319 322 320 315 325 329 328 295 296 283 265 263 247 288 281 12 354 64 23 14 310 340 300 320 348 337 317 321 94 201 68 57 317 1 86 72 46 41 93 114 103 103 101 99 99 96 92 86 84 92
320 317 315 317 317 319 310 311 319 314 300 202 219 240 237 290 357 13 12 28 15 2 332 346 342 338 345 11 333 351 313 101 259 59 72 74 268 50 97 104 76 43 5 88 97 95 92 96 98 100 102 98 92 83
317 314 314 316 314 312 312 312 316 325 286 281 312 313 288 296 12 13 3 351 328 301 318 344 349 22 341 348 334 304 318 291 94 82 83 125 73 41 13 92 126 132 91 89 91 94 102 102 111 113 119 118 112 105
315 314 311 311 326 329 322 315 307 285 275 296 304 288 332 9 339 86 313 350 350 308 329 320 280 50 285 297 334 308 284 67 41 86 63 114 145 146 116 74 83 89 92 101 106 111 103 97 100 97 97 103 116 116
323 310 353 350 347 333 318 312 264 202 236 263 257 291 346 341 13 18 36 347 324 327 295 287 267 261 332 280 270 355 28 53 109 101 55 97 142 194 142 134 143 147 128 122 125 113 107 105 106 105 101 99 98 108
311 235 350 6 345 320 304 275 256 246 251 254 245 313 325 282 272 340 7 337 328 299 342 334 350 11 320 359 58 12 35 89 135 126 119 186 130 101 68 135 117 95 92 98 102 104 112 117 121 121 126 135 137 133
269 284 329 340 338 298 238 210 265 261 253 216 222 240 207 250 274 327 262 270 283 311 338 23 274 354 347 10 94 104 115 138 108 133 142 136 83 77 77 76 81 85 91 92 98 97 100 106 112 135 144 144 130 126
291 296 303 305 308 310 293 238 224 276 267 203 224 197 205 225 159 251 266 261 95 294 291 320 358 277 126 127 137 140 159 136 146 155 119 143 193 95 90 94 92 93 96 102 89 92 95 98 108 185 126 138 146 151
283 286 277 282 196 255 265 241 178 257 277 314 279 245 193 183 159 206 234 192 233 100 306 292 253 64 128 158 158 152 143 148 152 152 120 98 98 93 92 96 97 100 102 103 110 118 106 80 63 68 67 81 83 82
291 34 297 196 199 218 281 302 248 251 294 283 298 301 272 137 181 183 185 179 185 71 265 270 222 114 111 154 155 143 152 164 184 131 127 128 120 106 100 110 114 113 113 130 150 124 114 127 138 111 96 102 93 95
287 335 294 197 263 202 244 240 280 306 271 276 288 261 263 144 177 92 153 194 86 67 285 261 161 149 160 169 151 161 162 124 98 101 94 106 122 125 144 178 145 178 161 158 124 118 102 102 118 111 103 94 109 119
299 222 226 248 272 65 258 216 238 229 246 265 233 237 201 157 124 148 107 118 130 176 231 245 135 124 141 180 139 90 117 118 121 129 138 147 162 169 175 175 147 119 98 80 92 102 106 96 100 134 137 139 144 154
224 252 242 231 185 245 258 214 234 251 251 244 258 237 124 109 104 52 268 113 147 142 243 122 110 107 90 119 108 134 149 130 130 149 152 124 117 111 90 87 73 83 111 117 116 115 121 185 159 176 166 173 186 170
261 253 165 263 236 220 224 232 239 245 235 220 225 205 150 101 164 217 190 146 172 156 174 184 162 149 158 125 121 173 136 145 158 151 145 125 118 96 84 76 80 97 111 114 134 140 149 166 175 78 49 69 96 120
233 230 190 213 211 227 207 244 243 247 253 228 253 22 38 101 215 214 67 65 157 196 275 169 184 154 144 151 166 141 197 140 117 103 116 123 122 126 130 128 117 79 128 132 132 144 149 112 99 95 93 88 68 92
250 252 216 246 240 265 274 250 259 265 264 124 59 91 234 216 110 85 99 6 36 52 316 308 39 216 152 154 137 146 112 115 116 119 110 93 83 83 133 152 146 178 172 157 157 131 120 122 146 146 148 149 93 59
251 276 242 225 230 235 239 260 106 308 49 127 123 52 14 26 88 108 130 128 305 287 303 305 287 283 138 133 128 118 108 106 102 97 86 73 82 78 66 67 81 84 71 36 81 110 121 127 124 128 131 120 99 76
236 242 268 265 248 239 245 256 224 142 198 168 103 151 189 354 142 182 167 206 193 241 227 240 266 322 135 129 125 128 129 136 135 130 128 125 110 98 108 131 113 95 87 79 51 67 73 83 101 107 103 111 118 93
240 218 241 250 249 230 58 9 119 124 56 65 62 272 52 82 97 108 130 157 195 231 242 308 286 296 154 141 127 126 137 142 148 154 168 171 158 142 142 154 118 120 122 108 100 88 78 84 80 77 103 110 102 138
232 267 238 229 232 153 161 224 123 96 101 291 287 266 263 118 106 179 194 173 174 245 255 269 282 258 192 152 144 147 159 196 168 173 143 121 132 138 141 125 123 126 122 119 126 140 136 155 165 170 126 109 109 100
217 207 269 214 150 159 208 88 125 230 197 247 248 219 277 201 223 258 188 161 200 211 204 235 311 282 142 148 155 169 172 172 136 126 134 136 139 135 131 130 129 126 129 142 160 167 179 144 109 94 68 92 68 89
213 211 225 196 163 193 195 167 221 185 228 210 217 253 264 207 233 265 8 200 202 196 185 202 255 338 195 227 212 151 145 117 114 114 115 118 123 129 132 123 120 135 143 139 118 100 93 92 88 91 93 94 93 91